Home   Weather   Ibiza   Past weeks

Flag for Spain Past Weather in Ibiza, Ibiza, Spain — Yesterday and Last 2 Weeks

Now
54 °F

Passing clouds.


Feels Like: 51 °F
Forecast: 53 / 65 °F
Wind: 8 mph from Northeast

Location: Ibiza / Es Codola

Current Time: Apr 28, 2017 at 6:43:34 am

Latest Report: Apr 28, 2017 at 6:00 am


Visibility: N/A

Pressure: 29.98 "Hg

Humidity: 77%

Dew Point: 46 °F

Location of IbizaLocation

Past Weather in Ibiza — Graph

°F

Ibiza Temperature Yesterday

Maximum temperature yesterday: 63 °F (at 12:00 am)
Minimum temperature yesterday: 54 °F (at 11:00 am)
Average temperature yesterday: 57 °F

High & Low Weather Summary for the Past Weeks

 TemperatureHumidityPressure
High75 °F (Apr 26, 3:00 pm)100% (Apr 13, 7:30 am)30.36 "Hg (Apr 13, 7:30 am)
Low46 °F (Apr 23, 6:00 am)25% (Apr 20, 6:00 pm)29.71 "Hg (Apr 26, 3:00 am)
Average61 °F73%30.06 "Hg
* Reported Apr 13 5:00 am — Apr 28 5:00 am, Ibiza, Weather by CustomWeather, © 2017

Note: Actual official high and low records may vary slightly from our data, if they occured in-between our weather recording intervals... More about our weather records

Advertising

Ibiza Weather History for the Previous 24 Hours

Scroll right to see more
 ConditionsComfort  
Time TempWeatherWind HumidityBarometerVisibility
5:00 am
Fri, Apr 28
54 °FPassing clouds.6 mph77%30.01 "HgN/A
4:30 am54 °FPassing clouds.6 mph77%30.01 "HgN/A
4:00 am54 °FPassing clouds.6 mph82%30.01 "HgN/A
3:30 am52 °FPassing clouds.6 mph88%30.01 "HgN/A
3:00 am54 °FPassing clouds.No wind82%30.01 "HgN/A
2:30 am54 °FPassing clouds.5 mph77%30.04 "HgN/A
2:00 am54 °FPassing clouds.8 mph77%30.04 "HgN/A
1:30 am54 °FPassing clouds.7 mph77%30.04 "HgN/A
1:00 am54 °FPassing clouds.6 mph82%30.01 "HgN/A
12:30 am54 °FPassing clouds.7 mph77%30.01 "HgN/A
12:00 am54 °FPassing clouds.7 mph82%30.01 "HgN/A
11:30 pm
Thu, Apr 27
54 °FPassing clouds.7 mph82%30.04 "HgN/A
11:00 pm54 °FPassing clouds.9 mph77%30.01 "HgN/A
10:30 pm54 °FPassing clouds.9 mph82%30.01 "HgN/A
10:00 pm54 °FPassing clouds.10 mph82%30.01 "HgN/A
9:30 pm54 °FPassing clouds.10 mph82%29.98 "HgN/A
9:00 pm54 °FPassing clouds.13 mph77%29.98 "HgN/A
8:30 pm54 °FScattered clouds.12 mph77%29.98 "HgN/A
8:00 pm54 °FScattered clouds.15 mph77%29.95 "HgN/A
7:30 pm54 °FScattered clouds.15 mph82%29.95 "HgN/A
7:00 pm55 °FScattered clouds.16 mph77%29.95 "HgN/A
6:30 pm55 °FScattered clouds.13 mph82%29.92 "HgN/A
6:00 pm55 °FScattered clouds.13 mph82%29.92 "HgN/A
5:30 pm54 °FBroken clouds.15 mph88%29.92 "HgN/A
5:00 pm55 °FBroken clouds.13 mph88%29.89 "HgN/A
4:30 pm55 °FBroken clouds.14 mph82%29.92 "HgN/A
4:00 pm54 °FScattered clouds.14 mph94%29.89 "HgN/A
3:30 pm54 °FScattered clouds.15 mph88%29.89 "HgN/A
2:30 pm55 °FScattered clouds.13 mph82%29.89 "HgN/A
2:00 pm55 °FScattered clouds.13 mph82%29.89 "HgN/A
1:30 pm54 °FPartly sunny.16 mph88%29.89 "HgN/A
12:30 pm54 °FPartly sunny.14 mph82%29.86 "HgN/A
12:00 pm54 °FPartly sunny.21 mph82%29.86 "HgN/A
11:30 am54 °FBroken clouds.24 mph88%29.83 "HgN/A
11:20 am54 °FBroken clouds.24 mph88%29.86 "HgN/A
11:00 am54 °FLight rain. Broken clouds.22 mph94%29.83 "Hg3 mi
10:30 am55 °FLight rain. Broken clouds.18 mph94%29.80 "Hg5 mi
10:00 am57 °FLight rain. Broken clouds.21 mph88%29.77 "Hg5 mi
9:30 am61 °FLight rain. Partly sunny.13 mph94%29.77 "Hg6 mi
9:00 am61 °FLight rain. Partly sunny.15 mph88%29.77 "Hg4 mi
8:30 am63 °FPartly sunny.15 mph88%29.77 "Hg4 mi
8:00 am61 °FLight rain. Partly sunny.14 mph88%29.74 "Hg4 mi
7:30 am61 °FPartly sunny.12 mph88%29.77 "HgN/A
7:00 am61 °FPassing clouds.14 mph88%29.74 "HgN/A
6:30 am61 °FPassing clouds.13 mph88%29.77 "HgN/A
Weather by CustomWeather, © 2017

See weather overviewHow to use our weather pages